Location: Leiter
(44.7178°N, 106.2687°W)
Time: 04:36:08
(UTC+00:00)

NOAA 19 - Pass Details

Date: 04 July 2022
Orbit: 840 x 861 km, 99.1° (Epoch: 09 August)

Event Time Altitude Azimuth Distance (km) Brightness Sun altitude
Rises 03:21:08 0° 199° (SSW) 3,416 8.2 -4.7°
Reaches altitude 10° 03:23:57 10° 213° (SSW) 2,481 7.6 -5.1°
Maximum altitude 03:28:21 24° 266° (W) 1,691 7.4 -5.7°
Drops below altitude 10° 03:32:46 10° 320° (NW) 2,485 9.4 -6.3°
Sets 03:35:36 0° 334° (NNW) 3,421 9.9 -6.7°
